| time (UTC) | temp F | wind direction | speed knots | gust knots | rain 1hr in | rain 24hr in | rain mn in | humidity % | barometer mb |
| 20260506040904 | 35 | 270 | 2.6 | 7.8 | 0.00 | 0.00 | 0.00 | 78 | 1000.5 |
| 20260506040005 | 34 | 269 | 2.6 | 8.7 | 0.00 | 0.00 | 0.00 | 79 | 1000.1 |
| 20260506035404 | 33 | 272 | 2.6 | 7.8 | 0.00 | 0.00 | 0.00 | 81 | 999.1 |
| 20260506034504 | 32 | 267 | 1.7 | 6.1 | 0.00 | 0.00 | 0.00 | 82 | 1001.5 |
| 20260506033604 | 31 | 262 | 1.7 | 7.0 | 0.00 | 0.00 | 0.00 | 82 | 1000.8 |
| 20260506032704 | 31 | 259 | 2.6 | 7.0 | 0.00 | 0.00 | 0.00 | 82 | 1000.5 |
| 20260506031804 | 31 | 264 | 1.7 | 6.1 | 0.00 | 0.00 | 0.00 | 82 | 1000.5 |
| 20260506030904 | 30 | 268 | 1.7 | 7.0 | 0.00 | 0.00 | 0.00 | 83 | 1000.4 |
| 20260506030005 | 30 | 259 | 1.7 | 4.3 | 0.00 | 0.00 | 0.00 | 83 | 1000.4 |
| 20260506025425 | 30 | 265 | 1.7 | 5.2 | 0.00 | 0.00 | 0.00 | 83 | 1000.3 |
| 20260506024504 | 29 | 247 | 0.9 | 5.2 | 0.00 | 0.00 | 0.00 | 83 | 1000.2 |
| 20260506023604 | 29 | 187 | 0.9 | 3.5 | 0.00 | 0.00 | 0.00 | 83 | 1000.2 |
| 20260506022704 | 29 | 188 | 0.9 | 5.2 | 0.00 | 0.00 | 0.00 | 83 | 1000.1 |
| 20260506021825 | 29 | 332 | 0.9 | 2.6 | 0.00 | 0.00 | 0.00 | 83 | 1000.0 |
| 20260506020904 | 29 | 234 | 0.9 | 2.6 | 0.00 | 0.00 | 0.00 | 83 | 1000.1 |
| 20260506020005 | 29 | 193 | 0.9 | 3.5 | 0.00 | 0.00 | 0.00 | 83 | 1000.1 |
| 20260506015404 | 29 | 159 | 0.0 | 1.7 | 0.00 | 0.00 | 0.00 | 82 | 1000.0 |
| 20260506014504 | 29 | 185 | 0.9 | 1.7 | 0.00 | 0.00 | 0.00 | 82 | 1000.0 |
| 20260506013625 | 29 | 174 | 0.9 | 1.7 | 0.00 | 0.00 | 0.00 | 82 | 999.9 |
| 20260506012725 | 29 | 177 | 0.9 | 1.7 | 0.00 | 0.00 | 0.00 | 82 | 999.8 |
| 20260506010904 | 29 | 224 | 0.9 | 2.6 | 0.00 | 0.00 | 0.00 | 81 | 999.7 |
| 20260506003604 | 30 | 260 | 0.9 | 3.5 | 0.00 | 0.00 | 0.00 | 80 | 999.5 |
| 20260506002704 | 30 | 269 | 0.9 | 4.3 | 0.00 | 0.00 | 0.00 | 79 | 999.5 |
| 20260506001804 | 30 | 266 | 0.9 | 3.5 | 0.00 | 0.00 | 0.00 | 78 | 999.4 |
| 20260506000904 | 31 | 259 | 0.9 | 4.3 | 0.00 | 0.00 | 0.00 | 78 | 999.4 |
| 20260506000032 | 31 | 261 | 0.9 | 4.3 | 0.00 | 0.01 | 0.00 | 78 | 999.4 |
| 20260505235404 | 31 | 288 | 1.7 | 4.3 | 0.00 | 0.01 | 0.00 | 78 | 999.4 |
| 20260505234504 | 31 | 277 | 0.9 | 3.5 | 0.00 | 0.01 | 0.00 | 78 | 999.3 |
| 20260505233604 | 31 | 271 | 1.7 | 7.0 | 0.00 | 0.01 | 0.00 | 78 | 999.3 |
| 20260505232704 | 31 | 260 | 0.9 | 5.2 | 0.00 | 0.01 | 0.00 | 79 | 999.3 |
| 20260505231804 | 31 | 200 | 0.9 | 2.6 | 0.00 | 0.01 | 0.00 | 78 | 999.3 |
| 20260505230904 | 31 | 212 | 0.9 | 2.6 | 0.00 | 0.01 | 0.00 | 77 | 999.3 |
| 20260505230025 | 31 | 247 | 0.9 | 3.5 | 0.00 | 0.01 | 0.00 | 77 | 999.2 |
| 20260505225404 | 31 | 278 | 0.9 | 3.5 | 0.00 | 0.02 | 0.00 | 77 | 999.2 |
| 20260505224504 | 31 | 248 | 0.9 | 3.5 | 0.00 | 0.02 | 0.00 | 77 | 999.2 |
| 20260505223604 | 32 | 263 | 1.7 | 6.1 | 0.00 | 0.02 | 0.00 | 76 | 999.3 |
| 20260505222704 | 32 | 237 | 0.9 | 4.3 | 0.00 | 0.02 | 0.00 | 75 | 999.3 |
| 20260505221804 | 32 | 261 | 0.9 | 5.2 | 0.00 | 0.02 | 0.00 | 75 | 999.2 |
| 20260505220904 | 32 | 269 | 0.9 | 5.2 | 0.00 | 0.03 | 0.00 | 75 | 999.3 |
| 20260505220025 | 32 | 263 | 1.7 | 6.1 | 0.00 | 0.03 | 0.00 | 74 | 999.3 |
| 20260505215404 | 32 | 241 | 0.9 | 6.1 | 0.00 | 0.03 | 0.00 | 74 | 999.2 |
| 20260505214504 | 32 | 265 | 1.7 | 3.5 | 0.00 | 0.03 | 0.00 | 73 | 999.2 |
| 20260505213604 | 32 | 295 | 0.9 | 3.5 | 0.00 | 0.03 | 0.00 | 73 | 999.1 |
| 20260505212704 | 32 | 259 | 0.9 | 3.5 | 0.00 | 0.03 | 0.00 | 71 | 999.0 |
| 20260505211804 | 33 | 280 | 1.7 | 5.2 | 0.00 | 0.03 | 0.00 | 70 | 999.0 |
| 20260505210904 | 34 | 277 | 1.7 | 5.2 | 0.00 | 0.03 | 0.00 | 69 | 999.0 |
| 20260505210006 | 34 | 278 | 2.6 | 7.0 | 0.00 | 0.03 | 0.00 | 69 | 998.9 |
| 20260505205404 | 34 | 278 | 3.5 | 7.0 | 0.00 | 0.03 | 0.03 | 69 | 998.8 |
| 20260505204504 | 33 | 282 | 3.5 | 7.0 | 0.00 | 0.03 | 0.03 | 70 | 998.8 |
| 20260505203604 | 32 | 294 | 2.6 | 4.3 | 0.00 | 0.03 | 0.03 | 69 | 998.8 |
| 20260505202725 | 32 | 279 | 1.7 | 5.2 | 0.00 | 0.03 | 0.03 | 68 | 998.7 |
| 20260505201804 | 33 | 271 | 1.7 | 5.2 | 0.00 | 0.03 | 0.03 | 67 | 998.7 |
| 20260505200904 | 34 | 269 | 1.7 | 5.2 | 0.00 | 0.03 | 0.03 | 66 | 998.6 |
| 20260505200004 | 35 | 274 | 1.7 | 5.2 | 0.00 | 0.03 | 0.03 | 63 | 998.5 |
| 20260505195404 | 36 | 281 | 2.6 | 5.2 | 0.00 | 0.03 | 0.03 | 62 | 998.5 |
| 20260505194504 | 36 | 278 | 2.6 | 7.8 | 0.00 | 0.03 | 0.03 | 62 | 998.5 |
| 20260505193625 | 36 | 263 | 0.9 | 5.2 | 0.00 | 0.03 | 0.03 | 62 | 998.5 |
| 20260505192704 | 37 | 273 | 1.7 | 6.1 | 0.00 | 0.03 | 0.03 | 60 | 998.5 |
| 20260505191825 | 38 | 273 | 1.7 | 6.1 | 0.00 | 0.03 | 0.03 | 59 | 998.5 |
| 20260505190904 | 38 | 275 | 1.7 | 6.1 | 0.00 | 0.03 | 0.03 | 58 | 998.4 |
| 20260505190004 | 39 | 280 | 2.6 | 6.1 | 0.00 | 0.03 | 0.03 | 57 | 998.4 |
| 20260505185404 | 40 | 280 | 1.7 | 7.0 | 0.00 | 0.03 | 0.03 | 56 | 998.3 |
| 20260505184504 | 40 | 279 | 3.5 | 7.0 | 0.00 | 0.03 | 0.03 | 55 | 998.3 |
| 20260505183604 | 40 | 273 | 1.7 | 7.8 | 0.00 | 0.03 | 0.03 | 55 | 998.2 |
| 20260505182704 | 41 | 266 | 0.9 | 5.2 | 0.00 | 0.03 | 0.03 | 52 | 998.1 |
| 20260505181804 | 42 | 277 | 3.5 | 7.8 | 0.00 | 0.03 | 0.03 | 51 | 998.1 |
| 20260505180904 | 42 | 276 | 4.3 | 11.3 | 0.00 | 0.03 | 0.03 | 50 | 998.1 |
| 20260505180004 | 43 | 279 | 6.1 | 13.9 | 0.00 | 0.03 | 0.03 | 48 | 998.0 |
| 20260505175404 | 43 | 277 | 6.1 | 11.3 | 0.00 | 0.03 | 0.03 | 49 | 997.8 |
| 20260505174504 | 44 | 280 | 6.1 | 15.6 | 0.00 | 0.03 | 0.03 | 47 | 997.8 |
| 20260505173604 | 45 | 278 | 6.1 | 12.2 | 0.00 | 0.03 | 0.03 | 47 | 997.7 |
| 20260505172704 | 45 | 276 | 7.0 | 15.6 | 0.00 | 0.03 | 0.03 | 46 | 997.7 |
| 20260505171804 | 46 | 276 | 6.1 | 13.0 | 0.00 | 0.03 | 0.03 | 46 | 997.6 |
| 20260505170904 | 46 | 279 | 7.0 | 15.6 | 0.00 | 0.03 | 0.03 | 46 | 997.6 |
| 20260505170004 | 46 | 283 | 7.0 | 13.9 | 0.00 | 0.03 | 0.03 | 46 | 997.6 |
| 20260505165404 | 46 | 282 | 7.0 | 13.9 | 0.00 | 0.03 | 0.03 | 45 | 997.5 |
| 20260505164504 | 46 | 279 | 8.7 | 17.4 | 0.00 | 0.03 | 0.03 | 45 | 997.5 |
| 20260505163604 | 46 | 290 | 9.6 | 17.4 | 0.00 | 0.03 | 0.03 | 45 | 997.5 |
| 20260505162704 | 45 | 292 | 9.6 | 17.4 | 0.00 | 0.03 | 0.03 | 45 | 997.4 |
| 20260505161804 | 45 | 288 | 8.7 | 15.6 | 0.00 | 0.03 | 0.03 | 47 | 997.4 |
| 20260505160904 | 45 | 287 | 10.4 | 20.9 | 0.00 | 0.03 | 0.03 | 47 | 997.3 |
| 20260505152704 | 47 | 280 | 8.7 | 17.4 | 0.00 | 0.03 | 0.03 | 44 | 996.9 |
| 20260505151804 | 47 | 286 | 7.8 | 16.5 | 0.00 | 0.03 | 0.03 | 45 | 996.8 |
| 20260505150904 | 46 | 288 | 10.4 | 21.7 | 0.00 | 0.03 | 0.03 | 47 | 996.7 |
| 20260505124525 | 43 | 277 | 8.7 | 17.4 | 0.00 | 0.03 | 0.03 | 58 | 995.9 |
| 20260505123604 | 43 | 277 | 9.6 | 20.0 | 0.00 | 0.03 | 0.03 | 59 | 995.7 |
| 20260505122703 | 43 | 276 | 6.1 | 14.8 | 0.00 | 0.03 | 0.03 | 60 | 995.7 |
| 20260505121803 | 42 | 286 | 7.8 | 15.6 | 0.00 | 0.03 | 0.03 | 64 | 995.7 |
| 20260505120904 | 42 | 285 | 9.6 | 16.5 | 0.00 | 0.03 | 0.03 | 65 | 995.7 |
| 20260505120004 | 41 | 291 | 9.6 | 15.6 | 0.00 | 0.03 | 0.03 | 66 | 995.7 |
| 20260505115404 | 41 | 291 | 9.6 | 18.2 | 0.00 | 0.03 | 0.03 | 66 | 995.7 |
| 20260505114525 | 41 | 280 | 8.7 | 19.1 | 0.00 | 0.03 | 0.03 | 66 | 995.6 |
| 20260505113603 | 41 | 279 | 8.7 | 21.7 | 0.00 | 0.03 | 0.03 | 65 | 995.5 |
| 20260505112704 | 41 | 275 | 8.7 | 17.4 | 0.00 | 0.03 | 0.03 | 66 | 995.3 |
| 20260505111803 | 41 | 283 | 7.8 | 14.8 | 0.00 | 0.03 | 0.03 | 68 | 995.3 |
| 20260505110903 | 41 | 291 | 8.7 | 17.4 | 0.00 | 0.03 | 0.03 | 68 | 995.2 |
| 20260505101803 | 40 | 275 | 6.1 | 14.8 | 0.00 | 0.03 | 0.03 | 71 | 994.6 |
| 20260505100904 | 40 | 281 | 11.3 | 23.5 | 0.00 | 0.03 | 0.03 | 71 | 994.5 |
| 20260505100004 | 40 | 280 | 8.7 | 19.1 | 0.00 | 0.03 | 0.03 | 71 | 994.4 |
| 20260505095403 | 40 | 278 | 7.8 | 16.5 | 0.00 | 0.03 | 0.03 | 73 | 994.4 |
| 20260505094504 | 40 | 274 | 8.7 | 22.6 | 0.00 | 0.03 | 0.03 | 72 | 994.2 |
| 20260505093603 | 40 | 271 | 7.0 | 15.6 | 0.00 | 0.03 | 0.03 | 73 | 994.0 |
| 20260505092703 | 40 | 277 | 8.7 | 15.6 | 0.00 | 0.03 | 0.03 | 72 | 994.0 |
| 20260505091804 | 40 | 270 | 7.0 | 14.8 | 0.00 | 0.03 | 0.03 | 73 | 993.8 |
| 20260505090903 | 40 | 267 | 7.0 | 15.6 | 0.00 | 0.03 | 0.03 | 73 | 993.8 |
| 20260505090004 | 40 | 278 | 9.6 | 17.4 | 0.00 | 0.03 | 0.03 | 75 | 993.5 |
| 20260505085424 | 39 | 281 | 8.7 | 18.2 | 0.00 | 0.03 | 0.03 | 76 | 993.7 |
| 20260505084525 | 40 | 275 | 9.6 | 16.5 | 0.00 | 0.03 | 0.03 | 74 | 993.6 |
| 20260505083604 | 40 | 274 | 8.7 | 16.5 | 0.00 | 0.03 | 0.03 | 73 | 993.3 |
| 20260505082703 | 40 | 276 | 7.8 | 19.1 | 0.00 | 0.03 | 0.03 | 73 | 993.3 |
| 20260505081803 | 41 | 263 | 4.3 | 10.4 | 0.00 | 0.03 | 0.03 | 74 | 993.2 |
| 20260505080903 | 41 | 268 | 5.2 | 13.0 | 0.00 | 0.03 | 0.03 | 73 | 993.1 |
| 20260505080025 | 40 | 263 | 6.1 | 16.5 | 0.00 | 0.03 | 0.03 | 74 | 993.0 |
| 20260505075403 | 41 | 209 | 4.3 | 13.0 | 0.00 | 0.03 | 0.03 | 74 | 993.0 |
| 20260505074504 | 41 | 218 | 4.3 | 13.9 | 0.00 | 0.03 | 0.03 | 74 | 993.0 |
| 20260505073624 | 40 | 254 | 3.5 | 10.4 | 0.00 | 0.03 | 0.03 | 77 | 992.9 |
| 20260505072703 | 40 | 253 | 4.3 | 14.8 | 0.00 | 0.03 | 0.03 | 77 | 992.9 |
| 20260505071803 | 41 | 248 | 2.6 | 12.2 | 0.00 | 0.03 | 0.03 | 78 | 993.0 |
| 20260505070903 | 40 | 228 | 2.6 | 8.7 | 0.00 | 0.03 | 0.03 | 78 | 992.8 |
| 20260505070004 | 40 | 254 | 2.6 | 8.7 | 0.00 | 0.03 | 0.03 | 79 | 993.0 |
| 20260505065404 | 40 | 253 | 3.5 | 9.6 | 0.00 | 0.03 | 0.03 | 80 | 992.8 |
| 20260505064504 | 40 | 254 | 3.5 | 9.6 | 0.00 | 0.03 | 0.03 | 79 | 992.8 |
| 20260505063603 | 40 | 235 | 2.6 | 8.7 | 0.00 | 0.03 | 0.03 | 82 | 992.6 |
| 20260505062703 | 39 | 207 | 2.6 | 12.2 | 0.00 | 0.03 | 0.03 | 82 | 992.6 |
| 20260505061803 | 38 | 189 | 2.6 | 8.7 | 0.00 | 0.03 | 0.03 | 83 | 992.7 |
| 20260505060903 | 38 | 216 | 2.6 | 8.7 | 0.00 | 0.03 | 0.03 | 83 | 992.6 |
| 20260505060024 | 38 | 204 | 2.6 | 9.6 | 0.00 | 0.03 | 0.03 | 84 | 992.6 |
| 20260505055403 | 38 | 229 | 2.6 | 7.8 | 0.00 | 0.03 | 0.03 | 86 | 992.7 |
| 20260505054504 | 37 | 242 | 3.5 | 8.7 | 0.00 | 0.03 | 0.03 | 86 | 992.7 |
| 20260505053603 | 37 | 238 | 2.6 | 9.6 | 0.00 | 0.03 | 0.03 | 86 | 992.8 |
| 20260505052703 | 37 | 232 | 2.6 | 9.6 | 0.00 | 0.03 | 0.03 | 87 | 992.7 |
| 20260505051803 | 37 | 237 | 2.6 | 11.3 | 0.00 | 0.03 | 0.03 | 87 | 992.7 |
| 20260505050903 | 37 | 217 | 2.6 | 7.8 | 0.00 | 0.03 | 0.03 | 87 | 992.8 |